Weather History for Petersburg, WV

Change the Weather History Date:

Saturday, August 31, 2013

  Actual Average (KEKN) Record (KEKN)
Temperature  
Mean Temperature 75 °F 67 °F  
Max Temperature 86 °F 79 °F 93 °F (1993)
Min Temperature 64 °F 56 °F 39 °F (1976)
Degree Days  
Heating Degree Days 0 1  
Month to date heating degree days 16  
Since 1 June heating degree days 85  
Since 1 July heating degree days 30  
Cooling Degree Days 10 3  
Month to date cooling degree days 145  
Year to date cooling degree days 426  
Since 1 June cooling degree days 403  
Growing Degree Days 25 (Base 50)    
Moisture  
Dew Point 68 °F    
Average Humidity 81    
Maximum Humidity 97    
Minimum Humidity 48    
Precipitation  
Precipitation 0.00 in 0.11 in 1.29 in (1911)
Month to date precipitation 3.84  
Year to date precipitation 32.81  
Snow  
Snow 0.00 in - - ()
Month to date snowfall  
Since 1 September snowfall  
Snow Depth -    
Sea Level Pressure  
Sea Level Pressure 29.89 in    
Wind  
Wind Speed 0 mph (North)    
Max Wind Speed 0 mph    
Max Gust Speed -    
Visibility 7 miles    
Events      
T = Trace of Precipitation, MM = Missing Value Source: NWS Daily Summary

Daily Weather History Graph

Daily Weather History Graph

Search for Another Location

Airport:

Trip Planner

Search our weather history database for the weather conditions in past years. The results will help you decide how hot, cold, wet, or windy it might be!

Date:

Astronomy

Aug. 31, 2013 Rise Set
Actual Time 6:44 AM EDT 7:48 PM EDT
Civil Twilight 6:17 AM EDT 8:15 PM EDT
Nautical Twilight 5:44 AM EDT 8:48 PM EDT
Astronomical Twilight 5:10 AM EDT 9:21 PM EDT
Moon 2:13 AM EDT (8/31) 4:44 PM EDT (8/31)
Length of Visible Light 13h 58m
Length of Day
13h 03m
Waning Crescent, 21% of the Moon is Illuminated
Aug 31
Waning Crescent
Sep 5
New
Sep 12
First Quarter
Sep 19
Full
Sep 26
Last Quarter

Hourly Weather History & Observations

Time (EDT) Temp. Heat Index Dew Point Humidity Pressure Visibility Wind Dir Wind Speed Gust Speed Precip Events Conditions
12:15 AM 71.6 °F - 70.0 °F 95% 29.92 in 4.0 mi Calm Calm - N/A   Clear
12:35 AM 70.9 °F - 69.6 °F 96% 29.92 in 3.0 mi Calm Calm - N/A   Clear
12:55 AM 70.7 °F - 69.3 °F 95% 29.92 in 4.0 mi Calm Calm - N/A   Clear
1:15 AM 70.5 °F - 69.3 °F 96% 29.91 in 2.5 mi Calm Calm - N/A   Clear
1:35 AM 69.6 °F - 68.2 °F 95% 29.91 in 1.8 mi Calm Calm - N/A   Mist
1:55 AM 70.0 °F - 68.9 °F 96% 29.90 in 4.0 mi Calm Calm - N/A   Scattered Clouds
2:15 AM 69.4 °F - 68.2 °F 96% 29.90 in 4.0 mi Calm Calm - N/A   Scattered Clouds
2:35 AM 69.1 °F - 68.0 °F 96% 29.90 in 4.0 mi Calm Calm - N/A   Scattered Clouds
2:55 AM 68.5 °F - 67.3 °F 96% 29.90 in 3.0 mi Calm Calm - N/A   Clear
3:15 AM 67.8 °F - 66.6 °F 96% 29.90 in 4.0 mi Calm Calm - N/A   Clear
3:35 AM 67.8 °F - 66.6 °F 96% 29.91 in 3.0 mi Calm Calm - N/A   Clear
3:55 AM 66.7 °F - 65.8 °F 97% 29.91 in 4.0 mi Calm Calm - N/A   Scattered Clouds
4:15 AM 66.4 °F - 65.3 °F 96% 29.91 in 3.0 mi Calm Calm - N/A   Scattered Clouds
4:35 AM 66.0 °F - 64.9 °F 96% 29.91 in 2.5 mi Calm Calm - N/A   Scattered Clouds
4:55 AM 65.3 °F - 64.2 °F 96% 29.91 in 4.0 mi Calm Calm - N/A   Clear
5:15 AM 65.3 °F - 64.4 °F 97% 29.90 in 2.5 mi Calm Calm - N/A   Clear
5:35 AM 65.3 °F - 64.4 °F 97% 29.90 in 1.8 mi Calm Calm - N/A   Mist
5:55 AM 64.9 °F - 63.9 °F 96% 29.89 in 1.0 mi Calm Calm - N/A   Mist
6:15 AM 65.5 °F - 64.6 °F 97% 29.90 in 2.0 mi Calm Calm - N/A   Clear
6:35 AM 65.7 °F - 64.8 °F 97% 29.90 in 3.0 mi Calm Calm - N/A   Clear
6:55 AM 66.0 °F - 65.1 °F 97% 29.91 in 2.0 mi Calm Calm - N/A   Clear
7:15 AM 66.6 °F - 65.7 °F 97% 29.92 in 2.5 mi Calm Calm - N/A   Clear
7:35 AM 68.0 °F - 67.1 °F 97% 29.92 in 2.0 mi Calm Calm - N/A   Clear
7:55 AM 68.9 °F - 68.0 °F 97% 29.93 in 4.0 mi Calm Calm - N/A   Clear
8:15 AM 70.9 °F - 70.0 °F 97% 29.92 in 4.0 mi Calm Calm - N/A   Clear
8:35 AM 73.4 °F - 69.3 °F 87% 29.91 in 7.0 mi Calm Calm - N/A   Clear
8:55 AM 73.0 °F - 69.3 °F 88% 29.92 in 7.0 mi Calm Calm - N/A   Clear
9:15 AM 73.6 °F - 68.9 °F 85% 29.92 in 7.0 mi Calm Calm - N/A   Clear
9:35 AM 74.8 °F - 70.0 °F 85% 29.92 in 7.0 mi Calm Calm - N/A   Clear
9:55 AM 77.5 °F - 68.7 °F 74% 29.91 in 10.0 mi Calm Calm - N/A   Clear
10:15 AM 78.3 °F - 67.5 °F 69% 29.91 in 10.0 mi Calm Calm - N/A   Scattered Clouds
10:35 AM 79.7 °F - 67.8 °F 67% 29.91 in 10.0 mi Calm Calm - N/A   Scattered Clouds
10:55 AM 79.7 °F - 67.5 °F 66% 29.91 in 10.0 mi Calm Calm - N/A   Scattered Clouds
11:15 AM 82.2 °F 85.8 °F 69.3 °F 65% 29.91 in 10.0 mi Calm Calm - N/A   Scattered Clouds
11:35 AM 84.6 °F 88.5 °F 69.4 °F 60% 29.91 in 10.0 mi Calm Calm - N/A   Scattered Clouds
11:55 AM 84.4 °F 88.5 °F 69.4 °F 61% 29.89 in 10.0 mi Calm Calm - N/A   Scattered Clouds
12:15 PM 85.1 °F 88.5 °F 68.4 °F 57% 29.89 in 10.0 mi Calm Calm - N/A   Clear
12:35 PM 84.7 °F 88.2 °F 68.4 °F 58% 29.89 in 10.0 mi Calm Calm - N/A   Clear
12:55 PM 85.8 °F 90.8 °F 70.5 °F 60% 29.89 in 10.0 mi Calm Calm - N/A   Clear
1:15 PM 85.1 °F 89.1 °F 69.3 °F 59% 29.90 in 10.0 mi Calm Calm - N/A   Clear
1:35 PM 84.0 °F 87.8 °F 69.1 °F 61% 29.90 in 10.0 mi Calm Calm - N/A   Scattered Clouds
1:55 PM 83.8 °F 89.5 °F 72.3 °F 68% 29.89 in 10.0 mi Calm Calm - N/A   Scattered Clouds
2:15 PM 84.7 °F 87.9 °F 68.2 °F 57% 29.88 in 10.0 mi Calm Calm - N/A   Scattered Clouds
2:35 PM 84.0 °F 86.5 °F 66.7 °F 56% 29.89 in 10.0 mi Calm Calm - N/A   Clear
2:55 PM 83.3 °F 85.5 °F 66.0 °F 56% 29.88 in 10.0 mi Calm Calm - N/A   Clear
3:15 PM 83.3 °F 86.2 °F 67.6 °F 59% 29.87 in 10.0 mi Calm Calm - N/A   Clear
3:35 PM 82.6 °F 85.9 °F 68.9 °F 63% 29.87 in 10.0 mi Calm Calm - N/A   Clear
3:55 PM 85.6 °F 88.5 °F 67.1 °F 54% 29.86 in 10.0 mi Calm Calm - N/A   Clear
4:15 PM 85.8 °F 88.8 °F 67.5 °F 54% 29.85 in 10.0 mi Calm Calm - N/A   Scattered Clouds
4:35 PM 86.5 °F 88.1 °F 64.6 °F 48% 29.85 in 10.0 mi Calm Calm - N/A   Mostly Cloudy
4:55 PM 86.2 °F 87.9 °F 65.1 °F 49% 29.85 in 10.0 mi Calm Calm - N/A   Scattered Clouds
5:15 PM 83.8 °F 86.0 °F 65.8 °F 55% 29.85 in 10.0 mi Calm Calm - N/A   Clear
5:35 PM 83.8 °F 85.6 °F 65.3 °F 53% 29.85 in 10.0 mi Calm Calm - N/A   Mostly Cloudy
5:55 PM 82.6 °F 86.6 °F 70.0 °F 66% 29.85 in 10.0 mi Calm Calm - N/A   Scattered Clouds
6:15 PM 81.9 °F 86.2 °F 71.1 °F 70% 29.84 in 10.0 mi Calm Calm - N/A   Scattered Clouds
6:35 PM 79.7 °F - 72.1 °F 78% 29.84 in 10.0 mi Calm Calm - N/A   Mostly Cloudy
6:55 PM 80.6 °F 84.6 °F 71.8 °F 74% 29.85 in 10.0 mi Calm Calm - N/A   Scattered Clouds
7:15 PM 79.7 °F - 71.6 °F 76% 29.85 in 10.0 mi Calm Calm - N/A   Mostly Cloudy
7:35 PM 77.0 °F - 71.8 °F 84% 29.86 in 10.0 mi Calm Calm - N/A   Overcast
7:55 PM 75.7 °F - 70.5 °F 84% 29.87 in 10.0 mi Calm Calm - N/A   Scattered Clouds
8:15 PM 73.2 °F - 70.2 °F 90% 29.87 in 10.0 mi Calm Calm - N/A   Scattered Clouds
8:35 PM 72.9 °F - 70.3 °F 92% 29.88 in 10.0 mi Calm Calm - N/A   Clear
8:55 PM 71.4 °F - 68.9 °F 92% 29.89 in 10.0 mi Calm Calm - N/A   Clear
9:15 PM 71.8 °F - 69.8 °F 93% 29.89 in 10.0 mi Calm Calm - N/A   Clear
9:35 PM 71.2 °F - 68.4 °F 91% 29.88 in 10.0 mi Calm Calm - N/A   Clear
9:55 PM 69.4 °F - 66.9 °F 92% 29.88 in 10.0 mi Calm Calm - N/A   Clear
10:15 PM 69.3 °F - 67.1 °F 93% 29.88 in 10.0 mi Calm Calm - N/A   Clear
10:35 PM 68.5 °F - 66.7 °F 94% 29.88 in 10.0 mi Calm Calm - N/A   Clear
10:55 PM 68.4 °F - 66.2 °F 93% 29.89 in 10.0 mi Calm Calm - N/A   Clear
11:15 PM 68.0 °F - 66.0 °F 93% 29.89 in 10.0 mi Calm Calm - N/A   Clear
11:35 PM 68.0 °F - 66.4 °F 95% 29.89 in 7.0 mi Calm Calm - N/A   Clear
11:55 PM 68.0 °F - 66.4 °F 95% 29.89 in 10.0 mi Calm Calm - N/A   Clear